Tiempo cada hora Golancz

Hoy, 2 Agosto, Lunes

Tiempo Temperatura Precipitaciones Viento Presión Humedad
00:00 +15°C° 0 mm 1 mps 738 mmHg 95%
01:00 +15°C° 0 mm 1 mps 738 mmHg 95%
02:00 +15°C° 0.2 mm 2 mps 737 mmHg 96%
03:00 +15°C° 0.2 mm 2 mps 737 mmHg 97%
04:00 +14°C° 0.2 mm 3 mps 737 mmHg 98%
05:00 +14°C° 0.9 mm 3 mps 737 mmHg 98%
06:00 +14°C° 0.9 mm 3 mps 737 mmHg 97%
07:00 +14°C° 0 mm 3 mps 737 mmHg 97%
08:00 +14°C° 0.3 mm 3 mps 737 mmHg 96%
09:00 +14°C° 0.3 mm 3 mps 737 mmHg 95%
10:00 +16°C° 0.3 mm 3 mps 738 mmHg 94%
11:00 +17°C° 0.5 mm 4 mps 738 mmHg 89%
12:00 +17°C° 0.5 mm 5 mps 738 mmHg 85%
13:00 +19°C° 0.5 mm 6 mps 739 mmHg 81%
14:00 +19°C° 0.5 mm 5 mps 739 mmHg 78%
15:00 +19°C° 0.5 mm 5 mps 739 mmHg 75%
16:00 +19°C° 0.5 mm 4 mps 740 mmHg 72%
17:00 +18°C° 0.1 mm 4 mps 740 mmHg 75%
18:00 +17°C° 0.1 mm 3 mps 740 mmHg 78%
19:00 +16°C° 0.1 mm 3 mps 740 mmHg 82%
20:00 +14°C° 0 mm 3 mps 740 mmHg 84%
21:00 +13°C° 0 mm 3 mps 740 mmHg 86%
22:00 +12°C° 0 mm 3 mps 741 mmHg 88%
23:00 +12°C° 0 mm 3 mps 741 mmHg 87%

Mañana, 3 Agosto, Martes

Tiempo Temperatura Precipitaciones Viento Presión Humedad
00:00 +12°C° 0 mm 4 mps 741 mmHg 86%
01:00 +11°C° 0 mm 4 mps 741 mmHg 85%
02:00 +11°C° 0 mm 4 mps 741 mmHg 86%
03:00 +11°C° 0 mm 4 mps 741 mmHg 87%
04:00 +11°C° 0 mm 4 mps 742 mmHg 89%
05:00 +12°C° 0 mm 4 mps 742 mmHg 85%
06:00 +14°C° 0 mm 5 mps 742 mmHg 81%
07:00 +15°C° 0 mm 5 mps 742 mmHg 77%
08:00 +16°C° 0.1 mm 5 mps 743 mmHg 72%
09:00 +19°C° 0.1 mm 5 mps 743 mmHg 67%
10:00 +20°C° 0.1 mm 5 mps 743 mmHg 63%
11:00 +20°C° 0.2 mm 5 mps 743 mmHg 61%
12:00 +21°C° 0.2 mm 5 mps 743 mmHg 59%
13:00 +21°C° 0.2 mm 5 mps 744 mmHg 57%
14:00 +21°C° 0.4 mm 4 mps 744 mmHg 59%
15:00 +20°C° 0.4 mm 3 mps 744 mmHg 62%
16:00 +20°C° 0.4 mm 2 mps 744 mmHg 65%
17:00 +19°C° 0.5 mm 2 mps 744 mmHg 69%
18:00 +17°C° 0.5 mm 2 mps 744 mmHg 73%
19:00 +16°C° 0.5 mm 1 mps 744 mmHg 77%
20:00 +15°C° 0.1 mm 1 mps 744 mmHg 79%
21:00 +14°C° 0.1 mm 2 mps 745 mmHg 81%
22:00 +14°C° 0.1 mm 2 mps 745 mmHg 83%
23:00 +13°C° 0 mm 1 mps 745 mmHg 83%

Pasado mañana, 4 Agosto, Miércoles

Tiempo Temperatura Precipitaciones Viento Presión Humedad
00:00 +13°C° 0 mm 1 mps 745 mmHg 84%
01:00 +12°C° 0 mm 1 mps 745 mmHg 84%
02:00 +12°C° 0 mm 1 mps 745 mmHg 85%
03:00 +12°C° 0 mm 1 mps 746 mmHg 86%
04:00 +11°C° 0 mm 1 mps 746 mmHg 88%
05:00 +13°C° 0 mm 1 mps 746 mmHg 84%
06:00 +15°C° 0 mm 1 mps 746 mmHg 80%
07:00 +18°C° 0 mm 1 mps 746 mmHg 75%
08:00 +19°C° 0 mm 1 mps 746 mmHg 68%
09:00 +21°C° 0 mm 1 mps 746 mmHg 60%
10:00 +23°C° 0 mm 1 mps 746 mmHg 52%
11:00 +23°C° 0 mm 2 mps 746 mmHg 51%
12:00 +23°C° 0 mm 2 mps 746 mmHg 49%
13:00 +24°C° 0 mm 2 mps 746 mmHg 48%
14:00 +23°C° 0 mm 2 mps 746 mmHg 51%
15:00 +23°C° 0 mm 2 mps 746 mmHg 55%
16:00 +21°C° 0 mm 2 mps 746 mmHg 58%
17:00 +21°C° 0.1 mm 1 mps 745 mmHg 63%
18:00 +20°C° 0.1 mm 1 mps 745 mmHg 68%
19:00 +18°C° 0.1 mm 1 mps 745 mmHg 74%
20:00 +16°C° 0 mm 1 mps 745 mmHg 76%
21:00 +15°C° 0 mm 1 mps 746 mmHg 79%
22:00 +14°C° 0 mm 1 mps 746 mmHg 82%
23:00 +14°C° 0 mm 1 mps 746 mmHg 83%

5 Agosto, Jueves

Tiempo Temperatura Precipitaciones Viento Presión Humedad
00:00 +14°C° 0 mm 1 mps 746 mmHg 84%
01:00 +13°C° 0 mm 1 mps 746 mmHg 86%
02:00 +13°C° 0 mm 1 mps 745 mmHg 87%
03:00 +13°C° 0 mm 1 mps 745 mmHg 88%
04:00 +12°C° 0 mm 1 mps 745 mmHg 89%
05:00 +14°C° 0 mm 1 mps 745 mmHg 83%
06:00 +16°C° 0 mm 2 mps 745 mmHg 77%
07:00 +18°C° 0 mm 2 mps 745 mmHg 71%
08:00 +20°C° 0 mm 3 mps 745 mmHg 65%
09:00 +21°C° 0 mm 3 mps 745 mmHg 59%
10:00 +23°C° 0 mm 4 mps 745 mmHg 53%
11:00 +23°C° 0 mm 4 mps 745 mmHg 52%
12:00 +25°C° 0 mm 4 mps 744 mmHg 51%
13:00 +25°C° 0 mm 4 mps 744 mmHg 50%
14:00 +23°C° 0.2 mm 4 mps 744 mmHg 57%
15:00 +22°C° 0.2 mm 4 mps 743 mmHg 65%
16:00 +21°C° 0.2 mm 4 mps 743 mmHg 73%
17:00 +20°C° 0.2 mm 3 mps 743 mmHg 79%
18:00 +19°C° 0.2 mm 3 mps 742 mmHg 84%
19:00 +18°C° 0.2 mm 3 mps 742 mmHg 90%
20:00 +18°C° 0 mm 3 mps 742 mmHg 90%
21:00 +17°C° 0 mm 4 mps 742 mmHg 91%
22:00 +17°C° 0 mm 4 mps 741 mmHg 92%
23:00 +17°C° 0.1 mm 4 mps 741 mmHg 92%

6 Agosto, Viernes

Tiempo Temperatura Precipitaciones Viento Presión Humedad
00:00 +16°C° 0.1 mm 5 mps 740 mmHg 92%
01:00 +16°C° 0.1 mm 5 mps 739 mmHg 91%
02:00 +15°C° 0.7 mm 6 mps 739 mmHg 93%
03:00 +15°C° 0.7 mm 6 mps 738 mmHg 94%
04:00 +15°C° 0.7 mm 6 mps 737 mmHg 95%
05:00 +15°C° 2.9 mm 7 mps 736 mmHg 96%
06:00 +15°C° 2.9 mm 7 mps 735 mmHg 97%
07:00 +15°C° 2.9 mm 7 mps 734 mmHg 97%
08:00 +16°C° 1.2 mm 7 mps 734 mmHg 95%
09:00 +17°C° 1.2 mm 7 mps 733 mmHg 93%
10:00 +18°C° 1.2 mm 7 mps 733 mmHg 90%
11:00 +18°C° 0.4 mm 7 mps 733 mmHg 89%
12:00 +18°C° 0.4 mm 7 mps 732 mmHg 88%
13:00 +18°C° 0.4 mm 7 mps 732 mmHg 87%
14:00 +19°C° 0.3 mm 6 mps 732 mmHg 89%
15:00 +17°C° 0.3 mm 6 mps 732 mmHg 91%
16:00 +17°C° 0.3 mm 6 mps 732 mmHg 93%
17:00 +16°C° 0.3 mm 6 mps 732 mmHg 94%
18:00 +16°C° 0.3 mm 5 mps 732 mmHg 95%
19:00 +15°C° 0.3 mm 5 mps 732 mmHg 97%
20:00 +15°C° 0.5 mm 6 mps 733 mmHg 97%
21:00 +16°C° 0.5 mm 6 mps 733 mmHg 97%
22:00 +16°C° 0.5 mm 7 mps 733 mmHg 96%
23:00 +16°C° 0.4 mm 7 mps 734 mmHg 96%

7 Agosto, Sábado

Tiempo Temperatura Precipitaciones Viento Presión Humedad
00:00 +15°C° 0.4 mm 8 mps 734 mmHg 96%
01:00 +15°C° 0.4 mm 8 mps 735 mmHg 96%
02:00 +15°C° 0.1 mm 8 mps 735 mmHg 95%
03:00 +15°C° 0.1 mm 8 mps 736 mmHg 94%
04:00 +15°C° 0.1 mm 8 mps 736 mmHg 94%
05:00 +15°C° 0 mm 8 mps 737 mmHg 92%
06:00 +16°C° 0 mm 7 mps 738 mmHg 91%
07:00 +16°C° 0 mm 7 mps 738 mmHg 89%
08:00 +17°C° 0 mm 7 mps 739 mmHg 81%
09:00 +20°C° 0 mm 7 mps 740 mmHg 73%
10:00 +21°C° 0 mm 7 mps 740 mmHg 65%
11:00 +22°C° 0 mm 6 mps 741 mmHg 61%
12:00 +23°C° 0 mm 6 mps 741 mmHg 56%
13:00 +24°C° 0 mm 6 mps 742 mmHg 52%
14:00 +25°C° 0 mm 5 mps 742 mmHg 53%
15:00 +25°C° 0 mm 4 mps 742 mmHg 54%
16:00 +25°C° 0 mm 3 mps 742 mmHg 55%
17:00 +24°C° 0 mm 3 mps 743 mmHg 62%
18:00 +21°C° 0 mm 2 mps 743 mmHg 69%
19:00 +20°C° 0 mm 2 mps 743 mmHg 76%
20:00 +19°C° 0 mm 2 mps 744 mmHg 79%
21:00 +18°C° 0 mm 2 mps 744 mmHg 82%
22:00 +17°C° 0 mm 3 mps 744 mmHg 84%
23:00 +17°C° 0 mm 3 mps 744 mmHg 84%
Mostrar más

Necesitamos Su Consentimiento

Meteoprog y nuestros Proveedores de Servicios pueden almacenar y acceder a sus datos personales como cookies, identificadores de dispositivo u otras tecnologías similares de su dispositivo y procesar dichos datos para personalizar contenido y anuncios, además de ofrecer funciones de redes sociales y analizar el tráfico.

  • Almacenar y/o acceder a información en su dispositivo

    Se puede almacenar o acceder a cookies, identificadores de dispositivo u otra información de su dispositivo para los fines anteriormente indicados.

  • Anuncios y contenido personalizados, medición de anuncios y contenido, percepciones del público, y desarrollo de productos

    Los anuncios y el contenido pueden personalizarse en base a su perfil. Se pueden añadir más datos para personalizar mejor los anuncios y contenidos. Se puede medir el rendimiento de los anuncios y contenidos. Se puede obtener la percepción sobre el público que ha visto los anuncios y contenidos. Dichos datos pueden usarse para desarrollar o mejorar la experiencia del usuario, sistemas y software.

Al hacer clic en ‘Estoy De Acuerdo’ usted permitirá el uso de las cookies, identificadores de dispositivo, balizas web u otras tecnologías similares indicadas. Su configuración puede cambiarse desde el navegador de su dispositivo.

Para ciertos fines, los intereses legítimos pueden ser considerados por encima del consentimiento. Puede leer más sobre ello en nuestra Política de Privacidad y Cookies.